EHI
0 0 0 0 0 0 0 0 0 0 0 0 0 0 0 0 0 0 0 0 0 0 0 0 0 0 0 0 0 0 0 0 0 0 0 0 0 0 0 0 0 0 0 0
0 0 0 0 0 0 0 0 0 0 0 0 0 0 0 0 0 0 0 0 0 0 0 0 0 0 0 0 0 0 0 0 0 0 0 0 0 0 0 0 0 0 0 0
0 0 0 0 0 0 0 0 0 0 0 0 0 0 0 0 0 0 0 0 0 0 0 0 0 0 0 0 0 0 0 0 0 0 0 0 0 0 0 0 0 0 0 0
0 0 0 0 0 0 0 0 0 0 0 0 0 0 0 0 0 0 0 0 0 0 0 0 0 0 0 0 0 0 0 0 0 0 0 0 0 0 0 0 0 0 0 0
0 0 0 0 0 0 0 0 0 0 0 0 0 0 0 0 0 0 0 0 0 0 0 0 0 0 0 0 0 0 0 0 0 0 0 0 0 0 0 0 0 0 0 0
0 0 0 0 0 0 0 0 0 0 0 0 0 0 0 0 0 0 0 0 0 0 0 0 0 0 0 0 0 0 0 0 0 0 0 0 0 0 0 0 0 0 0 0
0 0 0 0 0 0 0 0 0 0 0 0 0 0 0 0 0 0 0 0 0 0 0 0 0 0 0 0 0 0 0 0 0 0 0 0 0 0 0 0 0 0 0 0
0 0 0 0 0 0 0 0 0 0 0 0 0 0 0 0 0 0 0 0 0 0 0 0 0 0 0 0 0 0 0 0 0 0 0 0 0 0 0 0 0 0 0 0
0 0 0 0 0 0 0 0 0 0 0 0 0 0 0 0 0 0 0 0 0 0 0 0 0 0 0 0 0 0 0 0 0 0 0 0 0 0 0 0 0 0 0 0
0 0 0 0 0 0 0 0 0 0 0 0 0 0 0 0 0 0 0 0 0 0 0 0 0 0 0 0 0 0 0 0 0 0 0 0 0 0 0 0 0 0 0 0
0 0 0 0 0 0 0 0 0 0 0 0 0 0 0 0 0 0 0 0 0 0 0 0 0 0 0 0 0 0 0 0 0 0 0 0 0 0 0 0 0 0 0 0
0 0 0 0 0 0 0 0 0 0 0 0 0 0 0 0 0 0 0 0 0 0 0 0 0 0 0 0 0 0 0 0 0 0 0 0 0 0 0 0 0 0 0 0
0 0 0 0 0 0 0 0 0 0 0 0 0 0 0 0 0 0 0 0 0 0 0 0 0 0 0 0 0 0 0 0 0 0 0 0 0 0 0 0 0 0 0 0
0 0 0 0 0 0 0 0 0 0 0 0 0 0 0 0 0 0 0 0 0 0 0 0 0 0 0 0 0 0 0 0 0 0 0 0 0 0 0 0 0 0 0 0
0 0 0 0 0 0 0 0 0 0 0 0 0 0 0 0 0 0 0 0 0 0 0 0 0 0 0 0 0 0 0 0 0 0 0 0 0 0 0 0 0 0 0 0
0 0 0 0 0 0 0 0 0 0 0 0 0 0 0 0 0 0 0 0 0 0 0 0 0 0 0 0 0 0 0 0 0 0 0 0 0 0 0 0 0 0 0 0
0 0 0 0 0 0 0 0 0 0 0 0 0 0 0 0 0 0 0 0 0 0 0 0 0 0 0 0 0 0 0 0 0 0 0 0 0 0 0 0 0 0 0 0
0 0 0 0 0 0 0 0 0 0 0 0 0 0 0 0 0 0 0 0 0 0 0 0 0 0 0 0 0 0 0 0 0 0 0 0 0 0 0 0 0 0 0 0
0 0 0 0 0 0 0 0 0 0 0 0 0 0 0 0 0 0 0 0 0 0 0 0 0 0 0 0 0 0 0 0 0 0 0 0 0 0 0 0 0 0 0 0
0 0 0 0 0 0 0 0 0 0 0 0 0 0 0 0 0 0 0 0 0 0 0 0 0 0 0 0 0 0 0 0 0 0 0 0 0 0 0 0 0 0 0 0
0 0 0 0 0 0 0 0 0 0 0 0 0 0 0 0 0 0 0 0 0 0 0 0 0 0 0 0 0 0 0 0 0 0 0 0 0 0 0 0 0 0 0 0
0 0 0 0 0 0 0 0 0 0 0 0 0 0 0 0 0 0 0 0 0 0 0 0 0 0 0 0 0 0 0 0 0 0 0 0 0 0 0 0 0 0 0 0
0 0 0 0 0 0 0 0 0 0 0 0 0 0 0 0 0 0 0 0 0 0 0 0 0 0 0 0 0 0 0 0 0 0 0 0 0 0 0 0 0 0 0 0
0 0 0 0 0 0 0 0 0 0 0 0 0 0 0 0 0 0 0 0 0 0 0 0 0 0 0 0 0 0 0 0 0 0 0 0 0 0 0 0 0 0 0 0
0 0 0 0 0 0 0 0 0 0 0 0 0 0 0 0 0 0 0 0 0 0 0 0 0 0 0 0 0 0 0 0 0 0 0 0 0 0 0 0 0 0 0 0
0 0 0 0 0 0 0 0 0 0 0 0 0 0 0 0 0 0 0 0 0 0 0 0 0 0 0 0 0 0 0 0 0 0 0 0 0 0 0 0 0 0 0 0
0 0 0 0 0 0 0 0 0 0 0 0 0 0 0 0 0 0 0 0 0 0 0 0 0 0 0 0 0 0 0 0 0 0 0 0 0 0 0 0 0 0 0 0
Wind_Speed
5 6 4 5 6 6 5 6 6 6 6 8 10 10 9 7 5 4 4 4 3 3 3 2 2 1 1 1 2 2 4 4 5 5 5 5 6 6 6 6 7 6 7 7
3 5 4 3 6 7 6 5 6 5 7 6 6 6 6 6 6 5 5 4 3 3 2 3 2 2 1 0 1 2 3 3 4 4 5 5 5 5 6 6 6 6 7 7
3 2 0 5 7 8 6 6 7 7 8 4 5 8 9 8 7 6 5 4 4 3 3 4 3 3 2 1 1 3 2 2 3 4 4 5 5 5 5 5 5 6 6 7
1 2 2 7 4 5 6 6 7 6 6 10 9 9 8 8 8 7 6 5 3 2 2 3 2 3 2 2 2 3 2 2 2 3 4 4 5 5 4 4 4 4 5 6
3 1 6 6 3 2 2 5 6 8 7 8 5 4 3 7 7 8 7 6 4 3 3 3 3 4 4 3 2 2 1 0 1 1 3 4 4 4 3 3 4 4 4 6
3 0 3 6 2 2 2 5 5 8 9 8 8 4 7 7 7 7 6 5 4 3 3 3 3 5 5 4 3 2 2 1 1 0 1 2 3 3 3 2 3 4 5 5
2 2 7 6 1 3 1 7 4 7 9 11 10 9 6 6 7 7 7 5 5 4 4 4 5 6 5 4 4 4 3 1 1 1 1 1 2 3 3 3 3 4 4 5
4 2 7 5 4 6 10 5 3 5 8 10 8 5 5 8 8 8 7 6 5 4 4 4 5 6 6 5 5 4 3 2 1 1 1 1 2 3 3 3 4 4 4 4
9 9 8 6 9 7 5 4 4 5 7 9 7 8 9 8 8 8 8 7 5 5 5 4 5 6 7 6 5 4 3 3 2 1 1 0 1 2 2 3 3 2 2 3
3 6 5 6 7 5 5 5 4 5 7 9 9 10 9 9 8 8 8 7 6 6 5 5 6 7 7 7 6 5 4 4 3 3 2 1 1 1 1 1 1 1 1 1
3 6 5 4 4 6 6 5 4 4 7 10 11 10 10 9 9 8 8 7 6 6 7 7 6 7 7 7 6 5 4 4 4 4 3 2 1 1 1 2 2 2 1 1
5 5 3 5 6 3 3 5 5 5 4 6 10 11 11 10 9 9 8 7 7 7 7 7 7 7 7 7 7 6 4 4 4 3 3 3 2 1 2 3 3 3 3 3
5 8 3 4 7 8 4 4 4 4 6 6 7 9 11 10 9 9 9 9 9 9 9 8 7 8 8 8 7 7 6 5 4 4 4 4 3 3 3 3 4 5 5 5
8 7 5 7 8 9 7 7 4 3 3 4 6 7 7 8 8 9 10 11 10 9 9 8 8 8 8 8 8 7 6 6 6 5 5 4 4 4 4 3 3 3 5 7
10 8 5 6 8 10 10 9 8 7 7 5 3 5 7 9 10 11 11 10 9 9 9 9 9 9 8 8 9 8 6 4 5 5 4 4 4 4 4 4 4 3 2 3
7 7 9 11 13 13 12 11 9 9 8 7 5 6 7 9 10 10 10 9 9 11 11 10 11 10 8 9 9 7 6 9 7 5 4 4 4 4 4 4 4 4 4 4
7 10 12 13 13 12 12 11 10 9 9 9 9 8 7 7 7 8 9 11 12 13 12 12 12 10 9 10 10 7 6 6 9 5 5 5 5 5 4 4 5 5 5 6
6 6 6 6 8 10 12 12 12 13 11 11 11 9 7 6 8 10 11 10 10 10 10 11 11 10 10 10 10 7 6 6 6 6 5 5 5 5 5 5 5 6 5 5
7 7 8 8 8 8 9 11 12 12 13 13 13 11 9 8 8 9 8 8 11 12 12 12 14 12 10 12 12 7 8 7 6 6 6 7 6 5 5 5 5 6 5 5
7 7 8 8 9 9 10 10 11 12 13 14 14 13 13 12 11 9 7 9 11 11 11 12 12 11 11 12 14 8 9 9 8 7 6 6 6 6 6 6 6 6 6 6
5 6 7 7 8 8 8 9 10 12 13 13 13 14 13 13 12 10 7 8 9 8 9 13 11 10 10 11 14 9 9 9 9 8 7 7 7 7 6 7 6 6 6 6
3 4 5 6 6 7 7 7 8 10 12 12 13 14 14 15 14 12 9 7 10 12 8 7 8 12 14 14 10 10 11 10 9 8 8 7 7 7 7 7 7 6 6 6
2 3 4 5 5 5 6 7 8 9 10 11 12 13 13 11 9 10 12 11 12 16 10 7 10 15 18 13 10 11 11 11 10 9 9 8 8 8 7 8 7 6 6 6
2 3 4 4 4 5 6 7 7 6 7 7 8 10 10 10 10 8 9 16 20 19 10 11 14 15 16 10 9 10 11 11 10 9 9 8 8 7 7 7 7 6 6 7
2 3 3 4 4 3 5 6 6 6 7 6 8 8 7 6 7 10 11 13 20 19 12 14 17 14 9 7 8 9 10 10 10 9 9 8 8 8 7 7 7 7 6 6
3 3 3 3 3 3 3 3 4 5 5 6 7 7 7 6 7 8 9 12 16 18 14 11 12 11 7 5 5 7 7 8 9 9 9 8 9 8 7 8 9 7 6 6
4 3 3 3 4 3 3 3 3 4 4 5 6 7 7 7 7 8 9 9 10 11 11 11 12 11 10 8 6 5 4 5 5 6 7 7 7 7 8 10 8 7 6 6
Wind_Direction
220 215 184 192 196 188 179 187 197 232 228 230 212 207 209 213 219 226 231 234 234 243 256 268 281 293 332 7 22 39 40 29 14 7 12 14 15 14 16 20 23 16 20 17
281 238 207 234 227 204 210 207 215 231 254 237 195 184 198 206 208 212 217 220 223 231 234 237 230 219 200 91 41 60 57 31 12 12 11 10 10 12 15 15 12 17 18 16
304 310 60 278 242 203 211 208 190 212 231 171 172 193 198 202 204 206 205 204 209 225 232 226 218 200 178 171 104 82 71 38 17 15 13 6 10 15 13 8 11 15 13 12
33 42 253 257 261 189 200 228 207 207 198 179 193 201 201 195 192 197 194 194 202 211 212 212 199 176 155 132 106 97 85 46 17 17 12 5 11 9 2 1 8 11 13 11
87 344 290 294 279 162 187 272 218 197 193 192 174 142 241 216 188 185 188 191 197 197 190 188 178 164 137 127 114 106 110 57 341 12 14 8 3 356 351 3 11 11 13 18
99 71 267 267 275 121 87 286 256 186 184 177 142 167 245 218 184 178 177 179 179 168 163 161 170 151 138 147 146 164 199 217 232 304 10 4 351 349 354 6 11 19 25 21
157 236 268 259 186 81 121 252 254 184 182 173 182 201 214 175 172 173 177 184 170 165 176 184 167 148 150 169 195 211 205 191 195 238 284 353 2 4 12 29 34 31 28 16
151 199 269 231 149 186 220 239 232 193 187 186 201 198 175 169 171 175 182 186 176 177 198 196 172 157 166 196 215 212 199 195 220 250 276 56 49 27 27 44 50 34 28 18
182 212 239 212 206 220 192 209 225 200 199 180 175 176 177 179 179 185 190 196 190 188 202 206 188 173 182 209 209 202 199 212 227 231 238 116 96 65 39 41 54 40 36 22
233 268 262 248 247 255 225 227 227 199 186 172 177 181 183 184 188 193 198 200 198 191 201 214 207 199 200 202 197 195 205 217 214 207 218 216 141 115 92 63 59 51 37 10
269 291 321 323 272 255 250 254 248 210 185 184 179 184 187 190 195 198 200 201 195 196 205 215 207 206 209 200 188 194 210 217 213 209 205 201 195 196 193 220 210 193 215 238
250 278 259 284 318 323 265 259 245 223 203 195 187 190 190 196 199 198 200 198 199 205 210 215 206 208 210 202 189 187 203 213 210 206 205 198 197 245 278 245 252 237 224 220
292 290 264 308 358 2 334 303 278 235 216 207 204 196 193 198 201 200 202 199 202 206 209 210 206 211 212 203 192 189 197 204 204 203 201 199 199 206 239 273 267 266 259 253
342 358 17 2 345 344 345 341 342 334 281 233 212 200 196 200 202 202 207 208 207 207 209 208 208 216 212 199 196 198 199 204 198 202 202 202 203 206 205 211 241 263 255 247
360 13 2 339 354 6 6 7 8 354 336 313 267 221 206 203 208 213 213 208 203 206 212 210 212 221 208 194 197 200 196 199 201 202 204 206 205 206 207 211 218 230 240 254
341 8 19 20 15 7 6 6 359 344 333 317 300 270 239 222 218 217 212 201 197 209 213 211 217 219 199 192 197 200 203 206 194 197 205 207 208 208 213 215 217 216 220 223
24 19 13 12 7 3 3 357 348 338 335 331 312 292 272 248 235 228 221 212 210 213 210 209 216 214 198 194 195 198 199 205 203 198 204 208 209 213 215 214 216 219 225 216
35 30 19 8 2 0 0 359 356 351 344 331 326 321 303 270 247 239 231 221 218 224 220 214 213 207 201 199 198 198 195 198 195 200 207 212 215 216 214 216 219 223 230 225
20 19 15 12 8 6 3 0 355 350 349 346 343 335 319 297 279 264 245 224 219 227 229 220 214 206 205 205 198 196 197 199 201 205 208 218 221 220 216 216 219 219 216 210
16 12 10 8 8 8 5 358 355 356 356 354 351 348 343 333 320 302 270 241 233 232 225 213 210 209 209 208 200 197 200 202 204 205 206 211 217 222 221 220 219 219 215 210
9 5 4 3 2 1 359 354 355 355 354 356 358 351 341 335 333 327 311 283 274 263 246 225 215 212 208 205 200 199 202 204 205 206 206 209 214 220 222 224 223 221 218 215
357 354 352 352 354 350 345 347 352 352 354 355 356 354 350 346 342 337 324 307 307 304 281 249 232 220 213 206 201 200 204 206 208 207 207 208 209 215 219 220 222 224 221 217
332 337 340 339 338 332 337 347 350 351 351 349 350 349 346 339 339 340 332 327 325 318 303 271 255 237 221 211 206 205 206 208 208 209 210 210 210 211 215 217 218 218 219 219
319 322 323 326 338 347 342 335 336 337 337 335 340 341 341 339 337 336 324 325 331 330 319 301 284 263 237 222 212 209 209 209 209 210 209 209 209 210 211 213 215 216 218 219
287 300 315 330 333 319 311 319 327 331 334 332 331 332 335 333 327 328 330 334 340 343 335 329 322 303 271 245 223 216 212 210 208 206 206 206 207 209 211 211 212 213 213 214
260 270 272 270 267 273 288 308 316 318 324 327 326 326 328 327 326 330 335 338 344 349 348 343 340 332 318 295 263 239 226 219 213 209 207 207 209 208 210 212 213 211 210 210
264 265 274 284 279 269 272 281 290 298 304 309 312 315 320 323 326 330 334 340 344 348 348 349 350 348 344 337 322 296 267 244 227 217 212 210 209 210 212 212 210 208 205 206